Le Mars, IA

4:18 AM CDT on April 27, 2018 (GMT -0500)
Le Mars Municipal

Weather History for KLRJ - October, 2012

Change the Weather History Date:

Thursday, October 11, 2012

  Actual Average Record
Temperature  
Mean Temperature 40 °F -  
Max Temperature 51 °F 64 °F 91 °F (2015)
Min Temperature 28 °F 38 °F 19 °F (1987)
Degree Days  
Heating Degree Days 26    
Moisture  
Dew Point 27 °F    
Average Humidity 52    
Maximum Humidity 74    
Minimum Humidity 38    
Precipitation  
Precipitation 0.00 in - - ()
Sea Level Pressure  
Sea Level Pressure 30.13 in    
Wind  
Wind Speed 10 mph (NE)    
Max Wind Speed 17 mph    
Max Gust Speed 26 mph    
Visibility 10 miles    
Events      
Averages and records for this station are not official NWS values.
T = Trace of Precipitation, MM = Missing Value Source: NWS Daily Summary

Daily Weather History Graph

Daily Weather History Graph

Search for Another Location

Airport or City:

Astronomy

Oct. 11, 2012 Rise Set
Actual Time 7:33 AM CDT 6:48 PM CDT
Civil Twilight 7:05 AM CDT 7:16 PM CDT
Nautical Twilight 6:32 AM CDT 7:49 PM CDT
Astronomical Twilight 6:00 AM CDT 8:21 PM CDT
Moon 3:08 AM CDT (10/11) 4:29 PM CDT (10/11)
Length of Visible Light 12h 10m
Length of Day
11h 14m
Waning Crescent, 18% of the Moon is Illuminated
Oct 11
Waning Crescent
Oct 15
New
Oct 21
First Quarter
Oct 29
Full
Nov 6
Last Quarter

Hourly Weather History & Observations

Time (CDT) Temp. Windchill Dew Point Humidity Pressure Visibility Wind Dir Wind Speed Gust Speed Precip Events Conditions
12:15 AM 48.2 °F - 26.6 °F 43% 29.94 in 10.0 mi SSW 11.5 mph - N/A   Clear
12:35 AM 51.8 °F - 26.6 °F 38% 29.94 in 10.0 mi SSW 17.3 mph - N/A   Clear
12:55 AM 51.8 °F - 26.6 °F 38% 29.93 in 10.0 mi SSW 12.7 mph - N/A   Clear
1:15 AM 50.0 °F - 26.6 °F 40% 29.93 in 10.0 mi SSW 12.7 mph - N/A   Clear
1:38 AM 48.2 °F - 26.6 °F 43% 29.93 in 10.0 mi SSW 12.7 mph - N/A   Clear
1:55 AM 48.2 °F - 26.6 °F 43% 29.93 in 10.0 mi SSW 11.5 mph - N/A   Clear
2:15 AM 48.2 °F - 26.6 °F 43% 29.92 in 10.0 mi SSW 13.8 mph - N/A   Clear
2:55 AM 48.2 °F - 26.6 °F 43% 29.92 in 10.0 mi SSW 12.7 mph 17.3 mph N/A   Clear
3:15 AM 48.2 °F - 26.6 °F 43% 29.92 in 10.0 mi SSW 12.7 mph - N/A   Clear
3:35 AM 48.2 °F - 26.6 °F 43% 29.92 in 10.0 mi SSW 11.5 mph - N/A   Clear
3:55 AM 46.4 °F 41.9 °F 26.6 °F 46% 29.93 in 10.0 mi SSW 9.2 mph - N/A   Clear
4:15 AM 46.4 °F 42.4 °F 26.6 °F 46% 29.93 in 10.0 mi SSW 8.1 mph - N/A   Clear
4:35 AM 46.4 °F 41.9 °F 26.6 °F 46% 29.92 in 10.0 mi SSW 9.2 mph - N/A   Clear
4:55 AM 46.4 °F 42.9 °F 26.6 °F 46% 29.93 in 10.0 mi SSW 6.9 mph - N/A   Clear
5:15 AM 46.4 °F 43.5 °F 26.6 °F 46% 29.94 in 10.0 mi SSW 5.8 mph - N/A   Clear
5:35 AM 44.6 °F 43.1 °F 26.6 °F 49% 29.95 in 10.0 mi SW 3.5 mph - N/A   Clear
5:55 AM 42.8 °F 41.1 °F 28.4 °F 57% 29.97 in 10.0 mi West 3.5 mph - N/A   Clear
6:15 AM 42.8 °F 40.1 °F 28.4 °F 57% 29.97 in 10.0 mi SSW 4.6 mph - N/A   Clear
6:35 AM 42.8 °F 41.1 °F 28.4 °F 57% 29.98 in 10.0 mi South 3.5 mph - N/A   Clear
6:55 AM 39.2 °F 37.0 °F 28.4 °F 65% 29.99 in 10.0 mi South 3.5 mph - N/A   Clear
7:15 AM 37.4 °F 34.9 °F 26.6 °F 65% 29.99 in 10.0 mi South 3.5 mph - N/A   Clear
7:35 AM 37.4 °F 34.9 °F 26.6 °F 65% 29.99 in 10.0 mi SSW 3.5 mph - N/A   Clear
7:55 AM 37.4 °F - 28.4 °F 70% 30.00 in 10.0 mi Calm Calm - N/A   Clear
8:15 AM 39.2 °F - 28.4 °F 65% 30.02 in 10.0 mi Calm Calm - N/A   Clear
8:35 AM 41.0 °F - 30.2 °F 65% 30.03 in 10.0 mi Calm Calm - N/A   Clear
8:55 AM 44.6 °F 43.1 °F 30.2 °F 57% 30.05 in 10.0 mi NNE 3.5 mph - N/A   Clear
9:15 AM 46.4 °F 40.4 °F 30.2 °F 53% 30.07 in 10.0 mi NE 13.8 mph 19.6 mph N/A   Clear
9:35 AM 46.4 °F 40.4 °F 32.0 °F 57% 30.08 in 10.0 mi NE 13.8 mph 20.7 mph N/A   Clear
9:55 AM 44.6 °F 37.4 °F 32.0 °F 61% 30.10 in 10.0 mi NE 16.1 mph 20.7 mph N/A   Clear
10:15 AM 44.6 °F 38.1 °F 32.0 °F 61% 30.11 in 10.0 mi NE 13.8 mph 23.0 mph N/A   Clear
10:35 AM 46.4 °F 40.1 °F 32.0 °F 57% 30.12 in 10.0 mi NE 15.0 mph 26.5 mph N/A   Clear
10:55 AM 46.4 °F 40.1 °F 32.0 °F 57% 30.13 in 10.0 mi NE 15.0 mph 21.9 mph N/A   Clear
11:15 AM 46.4 °F 40.4 °F 33.8 °F 62% 30.14 in 10.0 mi NE 13.8 mph 19.6 mph N/A   Clear
11:35 AM 46.4 °F 40.4 °F 33.8 °F 62% 30.16 in 10.0 mi NNE 13.8 mph 20.7 mph N/A   Clear
11:55 AM 46.4 °F 40.1 °F 33.8 °F 62% 30.16 in 10.0 mi NNE 15.0 mph 24.2 mph N/A   Clear
12:15 PM 48.2 °F - 32.0 °F 54% 30.15 in 10.0 mi NE 15.0 mph 21.9 mph N/A   Clear
12:55 PM 48.2 °F - 30.2 °F 50% 30.20 in 10.0 mi NE 13.8 mph 18.4 mph N/A   Clear
1:15 PM 48.2 °F - 30.2 °F 50% 30.19 in 10.0 mi NE 10.4 mph 21.9 mph N/A   Clear
1:35 PM 48.2 °F - 28.4 °F 46% 30.18 in 10.0 mi NNE 15.0 mph 19.6 mph N/A   Clear
1:55 PM 48.2 °F - 26.6 °F 43% 30.20 in 10.0 mi NE 16.1 mph 23.0 mph N/A   Clear
2:15 PM 48.2 °F - 26.6 °F 43% 30.21 in 10.0 mi NNE 10.4 mph 18.4 mph N/A   Clear
2:35 PM 48.2 °F - 26.6 °F 43% 30.21 in 10.0 mi NNE 12.7 mph 18.4 mph N/A   Clear
2:55 PM 50.0 °F - 26.6 °F 40% 30.21 in 10.0 mi NNE 11.5 mph 20.7 mph N/A   Clear
3:15 PM 50.0 °F - 26.6 °F 40% 30.22 in 10.0 mi NNE 15.0 mph 20.7 mph N/A   Clear
3:55 PM 51.8 °F - 26.6 °F 38% 30.23 in 10.0 mi NNE 13.8 mph 20.7 mph N/A   Clear
4:15 PM 51.8 °F - 26.6 °F 38% 30.23 in 10.0 mi NNE 13.8 mph 20.7 mph N/A   Clear
4:35 PM 50.0 °F - 26.6 °F 40% 30.24 in 10.0 mi NNE 12.7 mph 20.7 mph N/A   Clear
5:15 PM 48.2 °F - 28.4 °F 46% 30.24 in 10.0 mi NNE 10.4 mph 18.4 mph N/A   Clear
5:35 PM 48.2 °F - 28.4 °F 46% 30.24 in 10.0 mi NNE 10.4 mph - N/A   Clear
6:35 PM 46.4 °F 44.3 °F 26.6 °F 46% 30.27 in 10.0 mi NNE 4.6 mph 17.3 mph N/A   Clear
6:55 PM 44.6 °F 39.7 °F 24.8 °F 46% 30.27 in 10.0 mi NNE 9.2 mph - N/A   Clear
7:15 PM 44.6 °F 39.7 °F 24.8 °F 46% 30.28 in 10.0 mi NNE 9.2 mph - N/A   Clear
7:35 PM 42.8 °F 40.1 °F 23.0 °F 46% 30.30 in 10.0 mi NNE 4.6 mph - N/A   Clear
8:15 PM 39.2 °F 37.0 °F 21.2 °F 49% 30.33 in 10.0 mi NNE 3.5 mph - N/A   Clear
8:35 PM 37.4 °F - 21.2 °F 52% 30.34 in 10.0 mi Calm Calm - N/A   Clear
8:55 PM 37.4 °F - 23.0 °F 56% 30.35 in 10.0 mi Calm Calm - N/A   Clear
9:15 PM 35.6 °F - 21.2 °F 56% 30.36 in 10.0 mi Calm Calm - N/A   Clear
9:35 PM 35.6 °F 32.8 °F 23.0 °F 60% 30.36 in 10.0 mi NNE 3.5 mph - N/A   Clear
9:55 PM 35.6 °F - 21.2 °F 56% 30.37 in 10.0 mi Calm Calm - N/A   Clear
10:35 PM 32.0 °F - 21.2 °F 64% 30.38 in 10.0 mi Calm Calm - N/A   Clear
10:55 PM 30.2 °F - 21.2 °F 69% 30.39 in 10.0 mi Calm Calm - N/A   Clear
11:15 PM 28.4 °F - 21.2 °F 74% 30.39 in 10.0 mi Calm Calm - N/A   Clear
11:35 PM 30.2 °F - 21.2 °F 69% 30.39 in 10.0 mi Calm Calm - N/A   Clear
11:55 PM 28.4 °F - 21.2 °F 74% 30.39 in 10.0 mi Calm Calm - N/A   Clear